Location: Pian di Sc�
(43.6333°N, 11.5500°E)
Time: 17:44:04
(UTC+00:00)

Lacrosse 4 Rocket - Pass Details

Date: 07 August 2020
Orbit: 544 x 615 km, 68.0° (Epoch: 18 September)

Event Time Altitude Azimuth Distance (km) Brightness Sun altitude
Exits shadow 00:12:59 30° 331° (NNW) 1,048 3.0 -28.8°
Drops below altitude 10° 00:15:58 10° 12° (NNE) 1,881 5.0 -28.7°
Sets 00:18:21 0° 22° (NNE) 2,769 6.1 -28.5°
